P/2024 O2 ( PanSTARRS )

Japanese version
Home page
Updated on November 27, 2024

---------------------------------------------------------------------

* Profile

Discovery Date July 28, 2024
Magnitude 20.8 mag
Discoverer Pan-STARRS 1 telescope (Haleakala)

* Orbital Elements

Epoch 2024 Oct. 17.0 TT = JDT 2460600.5
T 2024 Apr. 20.23311 TT                                 Rudenko
q   3.6976014            (2000.0)            P               Q
n   0.04909186     Peri.  310.79114     +0.72719261     +0.68402879
a   7.3869138      Node     6.80604     -0.38648651     +0.47711581
e   0.4994389      Incl.   28.97373     -0.56729100     +0.55178358
P  20.1
From 61 observations 2024 June 30-Oct. 22, mean residual 0".2.

* Magnitudes Graph

        m1 = 12.0 + 5 log d + 10.0 log r

---------------------------------------------------------------------

The orbital elements are published on M.P.E.C. 2024-U109.
The magnitudes graphs are made with Comet for Windows.

---------------------------------------------------------------------

Copyright(C) Seiichi Yoshida (comet@aerith.net). All rights reserved.